This is the latest recevied weather packets stored in our database for station/object G1YBJ-13. If no packets are shown the sender has not sent any weather packets the latest 10 day(s).
| Time | Temp. | Humidity | Pressure | Rain* | Wind** | Luminosity | Snow |
|---|---|---|---|---|---|---|---|
| 1777528808 | 7.78° C | 80% | 1025.1 hPa | - | - | - | - |
| 1777527907 | 6.67° C | 82% | 1025 hPa | - | - | - | - |
| 1777527007 | 6.11° C | 81% | 1025 hPa | - | - | - | - |
| 1777526105 | 5.56° C | 81% | 1025.1 hPa | - | - | - | - |
| 1777525203 | 5.56° C | 79% | 1025 hPa | - | - | - | - |
| 1777524302 | 5.56° C | 79% | 1025 hPa | - | - | - | - |
| 1777523401 | 5.56° C | 80% | 1025 hPa | - | - | - | - |
| 1777522498 | 6.11° C | 79% | 1024.8 hPa | - | - | - | - |
| 1777521597 | 6.11° C | 79% | 1024.9 hPa | - | - | - | - |
| 1777520696 | 6.11° C | 80% | 1025 hPa | - | - | - | - |
| 1777519795 | 6.11° C | 80% | 1024.9 hPa | - | - | - | - |
| 1777518892 | 6.67° C | 79% | 1024.9 hPa | - | - | - | - |
| 1777517992 | 6.67° C | 79% | 1025.1 hPa | - | - | - | - |
| 1777517091 | 6.67° C | 84% | 1025.2 hPa | - | - | - | - |
| 1777516190 | 6.67° C | 83% | 1025.1 hPa | - | - | - | - |
| 1777515288 | 6.67° C | 84% | 1025.2 hPa | - | - | - | - |
| 1777514387 | 6.67° C | 81% | 1025.3 hPa | - | - | - | - |
| 1777513485 | 6.67° C | 81% | 1025.4 hPa | - | - | - | - |
| 1777512584 | 6.67° C | 83% | 1025.5 hPa | - | - | - | - |
| 1777511683 | 6.67° C | 80% | 1025.6 hPa | - | - | - | - |
| 1777510782 | 7.22° C | 82% | 1025.7 hPa | - | - | - | - |
| 1777509881 | 7.22° C | 80% | 1025.8 hPa | - | - | - | - |
| 1777508981 | 7.22° C | 79% | 1025.8 hPa | - | - | - | - |
| 1777508079 | 7.22° C | 80% | 1026 hPa | - | - | - | - |
| 1777507178 | 7.78° C | 79% | 1026.1 hPa | - | - | - | - |
* Rain since midnight (hover to see other rain measurements)
** Current wind speed in m/s (hover to see current wind gust speed)